Home > Time Zones > World Clock > Weather > Peru > Cuzco > Past weeks

Flag for Peru Weather past 2 weeks in Cuzco, Cusco, Peru

Now
64 °F

Scattered clouds.


Feels Like: 64 °F
Forecast: 43 / 57 °F
Wind: 8 mph from North

Location: Cuzco Airport

Current Time: May 28, 2015 at 3:31:51 PM

Latest Report: May 28, 2015 at 3:00 PM


Visibility: N/A

Pressure: 30.39 "Hg

Humidity: 37%

Dew point: 37 °F

Location of CuzcoLocation

Historic Weather in Cuzco — Graph

°F

Cuzco temperature yesterday

Maximum temperature yesterday: 70 °F (at 1:00 PM)
Minimum temperature yesterday: 45 °F (at 11:00 PM)
Average temperature yesterday: 58 °F

Past Weeks' High & Low Weather Summary

 TemperatureHumidityPressure
High70 °F (May 22, 2:00 PM)93% (May 17, 4:00 AM)30.63 "Hg (May 17, 4:00 AM)
Low36 °F (May 20, 4:00 AM)21% (May 20, 1:00 PM)30.36 "Hg (May 13, 2:00 PM)
Average52 °F59%30.51 "Hg
* Reported May 13 2:00 PM — May 28 2:00 PM, Cuzco, Weather by CustomWeather, © 2015

Note: Actual official high and low records may vary slightly from our data, if they occured in-between our weather recording intervals... More about our weather records

Advertising

Cuzco weather history for previous 24 hours

 ConditionsComfort  
Time TempWeatherWind HumidityBarometerVisibility
2:00 PM
Thu, May 28
64 °FScattered clouds.7 mph40%30.42 "HgN/A
1:00 PM61 °FBroken clouds.5 mph45%30.45 "HgN/A
12:00 PM59 °FBroken clouds.2 mph45%30.51 "HgN/A
11:00 AM57 °FBroken clouds.2 mph55%30.54 "HgN/A
10:00 AM52 °FScattered showers. Broken clouds.8 mph62%30.57 "HgN/A
9:00 AM54 °FScattered clouds.3 mph58%30.57 "HgN/A
8:00 AM48 °FScattered clouds.No wind66%30.54 "HgN/A
7:00 AM41 °FBroken clouds.No wind76%30.54 "HgN/A
6:00 AM37 °FPassing clouds.No wind87%30.51 "HgN/A
5:00 AM37 °FPassing clouds.3 mph81%30.51 "HgN/A
4:00 AM41 °FPassing clouds.1 mph81%30.48 "HgN/A
3:00 AM39 °FPassing clouds.2 mph81%30.48 "HgN/A
2:00 AM41 °FPassing clouds.No wind76%30.48 "HgN/A
1:00 AM43 °FPassing clouds.2 mph76%30.51 "HgN/A
12:00 AM43 °FPassing clouds.3 mph76%30.51 "HgN/A
11:00 PM
Wed, May 27
45 °FPassing clouds.No wind71%30.51 "HgN/A
10:00 PM46 °FPassing clouds.2 mph62%30.51 "HgN/A
9:00 PM50 °FPassing clouds.2 mph50%30.48 "HgN/A
8:00 PM50 °FPassing clouds.3 mph50%30.45 "HgN/A
7:00 PM55 °FPassing clouds.2 mph41%30.42 "HgN/A
6:00 PM61 °FClear.9 mph31%30.39 "HgN/A
5:00 PM66 °FPassing clouds.8 mph22%30.36 "HgN/A
4:00 PM70 °FScattered clouds.7 mph21%30.36 "HgN/A
Weather by CustomWeather, © 2015

See weather overviewHow to use our weather pages